N326DW KPBI-MYAM

Flight info

Callsign N326DW
Flight time 0h 37m
Altitude 13000
Route MIXAE4 HALBI DCT ZFP BR70V MRRSH
Aircraft B350/L-SBGRW/S

Departure

Time 2026-04-27 15:14
Airport Palm Beach International Airport (KPBI)

Arrival

Time 2026-04-27 15:51
Airport Leonard M. Thompson International Airport (MYAM)
Time Latitude Longitude Altitude Speed Heading
2026-04-27 15:02 26.67933 -80.08044 21 ft 0 kts 90°
2026-04-27 15:10 26.67941 -80.08028 21 ft 5 kts 40°
2026-04-27 15:10 26.67989 -80.08010 21 ft 9 kts 359°
2026-04-27 15:10 26.68031 -80.08073 20 ft 13 kts 268°
2026-04-27 15:10 26.68026 -80.08176 20 ft 12 kts 265°
2026-04-27 15:11 26.68008 -80.08274 20 ft 10 kts 253°
2026-04-27 15:11 26.67981 -80.08383 20 ft 19 kts 255°
2026-04-27 15:11 26.67943 -80.08540 20 ft 19 kts 248°
2026-04-27 15:11 26.67908 -80.08681 20 ft 14 kts 257°
2026-04-27 15:12 26.67887 -80.08771 20 ft 9 kts 255°
2026-04-27 15:12 26.67880 -80.08798 20 ft 0 kts 254°
2026-04-27 15:12 26.67869 -80.08843 20 ft 8 kts 253°
2026-04-27 15:12 26.67850 -80.08916 20 ft 10 kts 271°
2026-04-27 15:13 26.67867 -80.08949 20 ft 0 kts 315°
2026-04-27 15:13 26.68000 -80.09094 19 ft 74 kts 315°
2026-04-27 15:13 26.68576 -80.09740 51 ft 141 kts 317°
2026-04-27 15:13 26.69358 -80.10601 377 ft 170 kts 318°
2026-04-27 15:14 26.70229 -80.11578 789 ft 186 kts 318°
2026-04-27 15:14 26.71168 -80.12569 1369 ft 184 kts 323°
2026-04-27 15:14 26.72154 -80.13573 1757 ft 197 kts 315°
2026-04-27 15:14 26.73118 -80.14665 2191 ft 200 kts 328°
2026-04-27 15:15 26.74444 -80.15051 2620 ft 202 kts
2026-04-27 15:15 26.75745 -80.14456 3057 ft 206 kts 39°
2026-04-27 15:15 26.76483 -80.13121 3484 ft 211 kts 73°
2026-04-27 15:15 26.76413 -80.11464 3922 ft 218 kts 102°
2026-04-27 15:16 26.76077 -80.09817 4361 ft 218 kts 98°
2026-04-27 15:16 26.75821 -80.08154 4786 ft 220 kts 96°
2026-04-27 15:16 26.75604 -80.06597 5180 ft 220 kts 96°
2026-04-27 15:16 26.75368 -80.04836 5626 ft 221 kts 95°
2026-04-27 15:17 26.75147 -80.03177 6044 ft 221 kts 95°
2026-04-27 15:17 26.74920 -80.01470 6476 ft 224 kts 96°
2026-04-27 15:17 26.74687 -79.99710 6854 ft 231 kts 96°
2026-04-27 15:17 26.74443 -79.97875 6926 ft 250 kts 96°
2026-04-27 15:18 26.74178 -79.95883 6939 ft 266 kts 96°
2026-04-27 15:18 26.73896 -79.93769 6935 ft 279 kts 96°
2026-04-27 15:18 26.73607 -79.91602 6933 ft 288 kts 96°
2026-04-27 15:18 26.73309 -79.89376 6937 ft 295 kts 96°
2026-04-27 15:19 26.73006 -79.87112 6956 ft 294 kts 96°
2026-04-27 15:19 26.72703 -79.84843 6930 ft 291 kts 96°
2026-04-27 15:19 26.72403 -79.82606 6913 ft 290 kts 96°
2026-04-27 15:19 26.72104 -79.80372 6912 ft 288 kts 97°
2026-04-27 15:20 26.71810 -79.78181 6902 ft 287 kts 97°
2026-04-27 15:20 26.71514 -79.75984 6922 ft 286 kts 97°
2026-04-27 15:20 26.71218 -79.73785 6905 ft 286 kts 96°
2026-04-27 15:20 26.70921 -79.71582 6918 ft 284 kts 97°
2026-04-27 15:21 26.70628 -79.69410 6919 ft 285 kts 97°
2026-04-27 15:21 26.70332 -79.67215 6929 ft 285 kts 97°
2026-04-27 15:21 26.70031 -79.64997 7006 ft 283 kts 96°
2026-04-27 15:21 26.69739 -79.62836 7239 ft 280 kts 96°
2026-04-27 15:22 26.69449 -79.60693 7453 ft 278 kts 96°
2026-04-27 15:22 26.69159 -79.58558 7665 ft 276 kts 97°
2026-04-27 15:22 26.68874 -79.56461 7874 ft 275 kts 97°
2026-04-27 15:22 26.68587 -79.54353 8088 ft 274 kts 97°
2026-04-27 15:23 26.68299 -79.52236 8303 ft 273 kts 97°
2026-04-27 15:23 26.68013 -79.50131 8517 ft 273 kts 97°
2026-04-27 15:23 26.67871 -79.48015 8723 ft 273 kts 88°
2026-04-27 15:23 26.67866 -79.45885 8924 ft 275 kts 89°
2026-04-27 15:24 26.67854 -79.43753 9118 ft 277 kts 89°
2026-04-27 15:24 26.67842 -79.41585 9313 ft 278 kts 89°
2026-04-27 15:24 26.67831 -79.39414 9508 ft 279 kts 89°
2026-04-27 15:24 26.67819 -79.37232 9702 ft 280 kts 89°
2026-04-27 15:25 26.67807 -79.35055 9893 ft 281 kts 89°
2026-04-27 15:25 26.67799 -79.33550 10026 ft 281 kts 89°
2026-04-27 15:25 26.67787 -79.31351 10218 ft 281 kts 89°
2026-04-27 15:25 26.67778 -79.29682 10363 ft 282 kts 89°
2026-04-27 15:26 26.67759 -79.26498 10692 ft 281 kts 89°
2026-04-27 15:26 26.67745 -79.24383 11327 ft 266 kts 89°
2026-04-27 15:26 26.67733 -79.22366 11969 ft 256 kts 89°
2026-04-27 15:26 26.67721 -79.20441 12725 ft 244 kts 88°
2026-04-27 15:27 26.67710 -79.18513 12978 ft 257 kts 88°
2026-04-27 15:27 26.67698 -79.16437 13024 ft 276 kts 89°
2026-04-27 15:27 26.67572 -79.14230 13013 ft 294 kts 101°
2026-04-27 15:27 26.66767 -79.12070 13053 ft 306 kts 116°
2026-04-27 15:28 26.65801 -79.09892 13031 ft 314 kts 115°
2026-04-27 15:28 26.64842 -79.07688 13019 ft 318 kts 115°
2026-04-27 15:28 26.63875 -79.05448 13015 ft 321 kts 115°
2026-04-27 15:28 26.62904 -79.03194 13017 ft 323 kts 115°
2026-04-27 15:29 26.61933 -79.00935 13020 ft 324 kts 115°
2026-04-27 15:29 26.60960 -78.98671 13008 ft 325 kts 115°
2026-04-27 15:29 26.59971 -78.96373 13009 ft 326 kts 115°
2026-04-27 15:29 26.58997 -78.94109 13010 ft 326 kts 115°
2026-04-27 15:30 26.58009 -78.91814 13012 ft 327 kts 115°
2026-04-27 15:30 26.57016 -78.89508 13003 ft 326 kts 115°
2026-04-27 15:30 26.56040 -78.87245 13007 ft 327 kts 115°
2026-04-27 15:30 26.55047 -78.84940 13008 ft 327 kts 115°
2026-04-27 15:31 26.54063 -78.82660 13012 ft 328 kts 115°
2026-04-27 15:31 26.53076 -78.80374 13009 ft 328 kts 115°
2026-04-27 15:31 26.52141 -78.78051 12987 ft 328 kts 107°
2026-04-27 15:31 26.51898 -78.75530 13030 ft 323 kts 86°
2026-04-27 15:32 26.51954 -78.73008 13007 ft 324 kts 87°
2026-04-27 15:32 26.52000 -78.70510 13009 ft 324 kts 87°
2026-04-27 15:32 26.52051 -78.67967 13012 ft 324 kts 87°
2026-04-27 15:32 26.52103 -78.65461 13010 ft 324 kts 87°
2026-04-27 15:33 26.52155 -78.62941 13009 ft 324 kts 87°
2026-04-27 15:33 26.52207 -78.60431 13012 ft 324 kts 87°
2026-04-27 15:33 26.52260 -78.57920 13008 ft 324 kts 87°
2026-04-27 15:33 26.52311 -78.55415 13006 ft 324 kts 87°
2026-04-27 15:34 26.52362 -78.52891 13011 ft 324 kts 87°
2026-04-27 15:34 26.52412 -78.50393 13011 ft 324 kts 87°
2026-04-27 15:34 26.52463 -78.47872 13010 ft 324 kts 87°
2026-04-27 15:34 26.52513 -78.45342 13028 ft 324 kts 87°
2026-04-27 15:35 26.52562 -78.42831 13019 ft 325 kts 87°
2026-04-27 15:35 26.52611 -78.40312 13023 ft 325 kts 87°
2026-04-27 15:35 26.52659 -78.37797 12996 ft 325 kts 87°
2026-04-27 15:35 26.52708 -78.35275 13010 ft 323 kts 87°
2026-04-27 15:36 26.52747 -78.33221 13049 ft 324 kts 88°
2026-04-27 15:36 26.52801 -78.30310 13023 ft 325 kts 88°
2026-04-27 15:36 26.52848 -78.27797 13015 ft 325 kts 88°
2026-04-27 15:36 26.52894 -78.25271 13010 ft 324 kts 88°
2026-04-27 15:37 26.52941 -78.22732 13013 ft 324 kts 88°
2026-04-27 15:37 26.52985 -78.20249 13014 ft 324 kts 88°
2026-04-27 15:37 26.53031 -78.17703 13013 ft 324 kts 88°
2026-04-27 15:37 26.53076 -78.15180 13012 ft 324 kts 88°
2026-04-27 15:38 26.53120 -78.12655 13015 ft 324 kts 88°
2026-04-27 15:38 26.53163 -78.10153 13017 ft 324 kts 88°
2026-04-27 15:38 26.53206 -78.07628 13014 ft 324 kts 88°
2026-04-27 15:38 26.53249 -78.05112 13014 ft 324 kts 88°
2026-04-27 15:39 26.53292 -78.02589 12996 ft 325 kts 88°
2026-04-27 15:39 26.53334 -78.00053 12889 ft 327 kts 88°
2026-04-27 15:39 26.53374 -77.97544 12751 ft 324 kts 88°
2026-04-27 15:39 26.53416 -77.95007 12541 ft 324 kts 88°
2026-04-27 15:40 26.53456 -77.92500 12323 ft 324 kts 88°
2026-04-27 15:40 26.53497 -77.89958 12137 ft 323 kts 88°
2026-04-27 15:40 26.53524 -77.87480 11933 ft 316 kts 90°
2026-04-27 15:40 26.53455 -77.85053 11687 ft 311 kts 91°
2026-04-27 15:41 26.53385 -77.82633 11435 ft 308 kts 91°
2026-04-27 15:41 26.53318 -77.80253 11189 ft 305 kts 91°
2026-04-27 15:41 26.53251 -77.77890 10946 ft 303 kts 91°
2026-04-27 15:41 26.53138 -77.75560 10705 ft 302 kts 93°
2026-04-27 15:42 26.53008 -77.73215 10460 ft 300 kts 93°
2026-04-27 15:42 26.52875 -77.70883 10018 ft 302 kts 93°
2026-04-27 15:42 26.52739 -77.68529 9548 ft 304 kts 93°
2026-04-27 15:42 26.52602 -77.66159 9069 ft 305 kts 93°
2026-04-27 15:43 26.52462 -77.63760 8580 ft 306 kts 93°
2026-04-27 15:43 26.52326 -77.61421 8125 ft 300 kts 93°
2026-04-27 15:43 26.52190 -77.59109 7614 ft 292 kts 93°
2026-04-27 15:43 26.52060 -77.56885 7119 ft 286 kts 93°
2026-04-27 15:44 26.51930 -77.54687 6624 ft 280 kts 93°
2026-04-27 15:44 26.51802 -77.52517 6129 ft 276 kts 94°
2026-04-27 15:44 26.51677 -77.50395 5638 ft 273 kts 93°
2026-04-27 15:44 26.51552 -77.48302 5149 ft 270 kts 94°
2026-04-27 15:45 26.51427 -77.46194 4667 ft 272 kts 93°
2026-04-27 15:45 26.51300 -77.44075 4222 ft 272 kts 93°
2026-04-27 15:45 26.51174 -77.41962 3997 ft 270 kts 93°
2026-04-27 15:45 26.51050 -77.39889 3826 ft 268 kts 94°
2026-04-27 15:46 26.50926 -77.37824 3544 ft 266 kts 93°
2026-04-27 15:46 26.50800 -77.35742 3345 ft 265 kts 94°
2026-04-27 15:46 26.50678 -77.33717 3094 ft 264 kts 94°
2026-04-27 15:46 26.50555 -77.31673 2818 ft 263 kts 94°
2026-04-27 15:47 26.50456 -77.29636 2532 ft 262 kts 90°
2026-04-27 15:47 26.50512 -77.27626 2261 ft 261 kts 89°
2026-04-27 15:47 26.50568 -77.25596 1984 ft 260 kts 89°
2026-04-27 15:47 26.50621 -77.23601 1701 ft 250 kts 89°
2026-04-27 15:48 26.50671 -77.21718 1410 ft 237 kts 89°
2026-04-27 15:48 26.50719 -77.19916 1392 ft 221 kts 89°
2026-04-27 15:48 26.50762 -77.18262 1317 ft 206 kts 89°
2026-04-27 15:49 26.50837 -77.15381 1246 ft 154 kts 89°
2026-04-27 15:49 26.50874 -77.14265 1008 ft 131 kts 89°
2026-04-27 15:49 26.50913 -77.13278 679 ft 128 kts 87°
2026-04-27 15:49 26.50945 -77.12247 545 ft 139 kts 91°
2026-04-27 15:50 26.50971 -77.11133 392 ft 146 kts 91°
2026-04-27 15:50 26.50976 -77.10040 136 ft 131 kts 89°
2026-04-27 15:50 26.50999 -77.09094 9 ft 108 kts 90°
2026-04-27 15:50 26.51016 -77.08416 15 ft 61 kts 89°
2026-04-27 15:51 26.51054 -77.08113 16 ft 24 kts 69°
2026-04-27 15:51 26.51102 -77.08019 16 ft 3 kts 57°
2026-04-27 15:51 26.51112 -77.08002 16 ft 5 kts 56°
2026-04-27 15:51 26.51145 -77.07959 16 ft 6 kts 358°
2026-04-27 15:52 26.51151 -77.07996 16 ft 7 kts 265°
2026-04-27 15:52 26.51148 -77.08073 16 ft 11 kts 267°
2026-04-27 15:52 26.51144 -77.08179 16 ft 15 kts 267°
2026-04-27 15:52 26.51142 -77.08312 15 ft 17 kts 272°
2026-04-27 15:53 26.51168 -77.08425 14 ft 14 kts 355°
2026-04-27 15:53 26.51254 -77.08422 13 ft 12 kts 358°
2026-04-27 15:53 26.51334 -77.08418 13 ft 8 kts 53°
2026-04-27 15:53 26.51338 -77.08395 13 ft 0 kts 88°